Página principal
METAR-TAF:

METAR-TAF

Aeroportos :

Flores, Açores, Portugal

Aeroporto das Flores

latitude: 39-27N, longitude: 031-08W, altura: 28 m

Observação actual do tempo

O boletim foi feito há 20 minutos, às 15:30 UTC
Vento 11 kt de su-sudeste
Temperatura 25°C
Humidade 89%
Pressão 1026 hPa
Visibilidade 10 km ou mais
Poucas nuvensa uma altura de 300 ft
Nuvens dispersasa uma altura de 500 ft, Cumulus congestus.

METAR: LPFL 231530Z 15011KT 9999 FEW003 SCT005TCU 25/23 Q1026

Hora: 15:50 (15:50 UTC)


TAF: em falta

Observações e previsões do tempo de mais de 4000 aeroportos (mensagens METAR e TAF).

As estações disponíveis são os pontos amarelos e vermelhos sobre o mapa.

Mova o rato sobre o mapa para ver o nome da estação.

Depois clique no ponto para visualizar as observações e previsões meteorológicas.

Para alterar o mapa : clique nos botões verdes com uma cruz preta para aumentar o zoom; no botão verde com uma pitada de zoom; ou nas setas verdes para mapas adjacentes.


METAR-TAF: